Regional Weather Roundup
Issued by NWS

Home | Current Version | Previous Version | Text Only | Print | Product List | Glossary On
Versions: 1 2 3 4 5 6 7 8 9 10 11 12 13 14 15 16 17 18 19 20 21 22 23 24 25 26 27 28 29 30 31 32 33 34 35 36 37 38 39 40 41 42 43 44 45 46 47 48 49 50
000
ASUS45 KTFX 011919
RWRMT
MONTANA HOURLY WEATHER ROUNDUP
NATIONAL WEATHER SERVICE GREAT FALLS MT
119 PM MDT MON SEP 1 2014

NOTE: "FAIR" INDICATES FEW OR NO CLOUDS BELOW 12000 FEET WITH NO
SIGNIFICANT WEATHER AND/OR OBSTRUCTIONS TO VISIBILITY.

* THESE STATIONS ARE NOT UNDER NWS QUALITY CONTROL. THEY DO NOT
   REPORT WEATHER SUCH AS PRECIPITATION OR FOG.

MTZ001>007-043-012000-
WEST OF THE DIVIDE
CITY           SKY/WX    TMP DP  RH WIND       PRES   REMARKS
KALISPELL      PTSUNNY   61  46  58 S10       29.99F
MISSOULA       PTCLDY    63  39  41 CALM      30.06F
BUTTE          SUNNY     59  34  39 N10       30.08F
MULLAN PASS    CLOUDY    46  37  71 VRB7      30.11F
* LINCOLN      N/A       58  37  46 SW6G15     N/A
* LOOKOUT PASS N/A       53  38  57 SE7G14     N/A
* POLSON       N/A       64  47  54 S3         N/A
* RONAN APT    PTCLDY    63  45  52 S5         N/A
* SEELEY LAKE  N/A       61  38  43 NW8G15     N/A
* THOMP F APT  SUNNY     60  40  48 S7G16      N/A
$$

MTZ008-052>055-012000-
SOUTHWEST MONTANA
CITY           SKY/WX    TMP DP  RH WIND       PRES   REMARKS
BOZEMAN        PTSUNNY   61  34  36 S5        30.05F
DILLON         SUNNY     63  36  37 SW14G21   30.07F
W YELLOWSTONE  PTCLDY    55  37  51 SW12G23   30.13S
* THREE FORKS  SUNNY     64  64 100 W9         N/A
* BOULDER HILL N/A       56  29  36 S5G17      N/A
* MONIDA PASS  N/A       53  35  51 N3G9       N/A
* RAYNOLDS PAS N/A       56  44  64 S11G20     N/A
* WHITEHALL    N/A       66  36  33 NW6G15     N/A
* WISE RIVER   N/A       58  32  37 NW10G20    N/A
$$

MTZ009>010-012-014-046-048-049-054-012000-
EAST SLOPES AND CENTRAL MONTANA
CITY           SKY/WX    TMP DP  RH WIND       PRES   REMARKS
CUT BANK       SUNNY     64  39  40 W25G35    29.92F
GREAT FALLS    PTCLDY    70  37  30 SW20      29.95F
HELENA         PTCLDY    66  34  31 W16G22    30.02F
MALMSTROM AFB  SUNNY     66  36  33 W15G20    29.96F
* CONRAD       SUNNY     68  43  40 W11G26     N/A
* EAST GLACIER N/A       55  38  53 W17G26     N/A
* MONARCH      N/A       55  29  37 W12G19     N/A
* PENDROY      N/A       65  40  40 W14G21     N/A
* ROGERS PASS  N/A       56  34  44 SE8G19     N/A
* SAINT MARY   N/A       56  42  60 S10G20     N/A
* SWEET GRASS  N/A       65  32  29 W17G23     N/A
* WHITE SULPH  N/A       62  37  40 W5G15      N/A
$$

MTZ011-013-016-021-035-040-045-047-050-051-012000-
NORTH CENTRAL MONTANA
CITY           SKY/WX    TMP DP  RH WIND       PRES   REMARKS
HAVRE          PTCLDY    72  36  27 W18G25    29.87F
LEWISTOWN      SUNNY     64  36  35 W15G23    29.98S
* CHINOOK      SUNNY     70  43  38 W13G18    29.87F
* FORT BENTON  SUNNY     70  37  30 SW14G20   29.91F
* CHESTER      N/A       66  33  29 W14G24     N/A
* DENTON       N/A       65  38  37 W14        N/A
* GEYSER       N/A       64  37  37 W15G20     N/A
* JUDITH GAP   N/A       61  38  43 VRB7G12    N/A
* LOMA         N/A       69  36  30 W15        N/A
$$

MTZ017>020-022>027-061-062-012000-
NORTHEAST MONTANA
CITY           SKY/WX    TMP DP  RH WIND       PRES   REMARKS
GLASGOW        SUNNY     68  48  49 SW7       29.87F
GLENDIVE       CLOUDY    63  52  68 W7        29.91S
JORDAN         SUNNY     70  45  41 NW8       29.89F
SIDNEY         PTCLDY    70  46  42 CALM      29.87S
WOLF POINT     PTCLDY    72  48  43 SW12      29.85F
* BEAVER HILL  N/A       66  47  51 W17        N/A
* CIRCLE       N/A       64  51  63 W2G11      N/A
* LINDSAY DVD  N/A       59  46  62 SW5G14     N/A
* NAVAJO       N/A       68  41  38 W13G19     N/A
$$

MTZ028>042-056>058-012000-
SOUTHCENTRAL AND SOUTHEAST MONTANA
CITY           SKY/WX    TMP DP  RH WIND       PRES   REMARKS
BAKER          CLOUDY    64  48  56 W13       29.92F
BILLINGS       PTCLDY    66  36  33 NW13      29.98S
LIVINGSTON     LGT RAIN  66  36  33 W17       30.02F
MILES CITY     PTSUNNY   70  39  32 NW14G23   29.90F
* LAUREL APT   PTCLDY    68  36  31 NW6        N/A
* ROUNDUP APT  SUNNY     66  37  34 N/A        N/A
* ALZADA       N/A       64  43  47 SW14       N/A
* HYSHAM       N/A       67  36  32 W3G11      N/A
* LAME DEER    N/A       61  43  52 SW12G17    N/A
* REED POINT   N/A       67  37  33 W16G28     N/A
* ROSCOE HILL  N/A       62  33  34 NE9        N/A
$$

REGIONAL REPORTS...DAKOTAS
CITY           SKY/WX    TMP DP  RH WIND       PRES   REMARKS
WILLISTON      PTSUNNY   72  43  35 W7        29.84S
DICKINSON      PTCLDY    68  46  45 NW10      29.86S
BEACH          N/A       64  45  50 W13G21    29.90S
CROSBY         SUNNY     68  39  35 NW12G17   29.82S
TIOGA          PTSUNNY   68  43  40 W9        29.86F
WATFORD CITY   PTCLDY    70  45  41 N6        29.83F
BISMARCK       SUNNY     73  52  48 NW13      29.82S
GRAND FORKS    TSTM      72  55  55 W8        29.69F
FARGO          PTSUNNY   73  55  53 W7        29.73F
BUFFALO SD     PTSUNNY   68  45  44 NW12G17   29.85F
RAPID CITY     PTSUNNY   72  46  40 N12       29.92F
$$

REGIONAL REPORTS...WYOMING/IDAHO/WASHINGTON
CITY           SKY/WX    TMP DP  RH WIND       PRES   REMARKS
GILLETTE       PTSUNNY   61  45  56 N10       30.02S
SHERIDAN       HVY RAIN  52  46  80 S9        30.01F VSB 2
CODY           PTCLDY   N/A N/A N/A N/A        N/A
YELLOWSTONE LA PTCLDY    52  30  43 W12G17    30.19R
SALMON         SUNNY     64  41  43 N7        30.04F
MULLAN PASS    CLOUDY    46  37  71 VRB7      30.11S
SAND POINT     SUNNY     64  43  47 SW9       30.03F
SPOKANE        SUNNY     64  39  40 SW10G21   30.04F
$$

REGIONAL REPORTS...ALBERTA
CITY           SKY/WX    TMP DP  RH WIND       PRES   REMARKS
CALGARY        SUNNY     66  32  28 W15G24    29.81F
LETHBRIDGE     PTCLDY    66  37  34 W20G28    29.84F
MEDICINE HAT   PTCLDY    70  46  42 SW9       29.82F
EDMONTON       N/A       63  39  41 E6        29.76F
WATERTON GATE  N/A       61  36  39 SW23G35    N/A
CARDSTON       N/A       63  39  41 W17G26     N/A
MILK RIVER     N/A       66  36  33 NW14       N/A
$$

REGIONAL REPORTS...SASKATCHEWAN
CITY           SKY/WX    TMP DP  RH WIND       PRES   REMARKS
SWIFT CURRENT  SUNNY     68  36  31 NW9G22    29.82F
REGINA         SUNNY     66  46  49 NW16      29.79S
VAL MARIE      N/A       66  43  43 N5         N/A
ASSINIBOIA     N/A       68  39  35 NW15       N/A
CORONACH       N/A       64  39  40 NW15G22    N/A

$$



USA.gov is the U.S. government's official web portal to all federal, state and local government web resources and services.